ORBCOMM FM108

Last updated on Thu Aug 20 2026 00:03:08 GMT+0000 (Coordinated Universal Time)

1 41187U 15081J 26231.08732399 .00000279 00000+0 95020-4 0 9998 2 41187 47.0036 244.7886 0001483 154.5478 205.5481 14.58948902569265
UTC large
Height (km)
Speed (km/s)
/
Latitude / Longitude
Inclination (degrees)
Orbital Period (minutes)
Azimuth
Elevation
Range (km)
Doppler Factor

Next 0 passes for location: London (51.5072 / 0.1276)

No passes found over London.
ORBCOMM FM108